timestamp,wind_dir_avg,wind_spd_avg,wind_spd_max_dir,wind_spd_gust,battery_voltage,lat,long
2023-08-20 00:04:00+00:00,163.0,4.04,167.0,4.47,12.41,47.59359,-54.27349
2023-08-20 00:14:01+00:00,165.0,3.83,169.0,4.21,12.41,47.59359,-54.27349
2023-08-20 00:24:01+00:00,167.0,3.46,171.0,3.72,12.41,47.59359,-54.27349
2023-08-20 00:34:01+00:00,167.0,3.53,167.0,3.85,12.41,47.59359,-54.27349
2023-08-20 00:44:01+00:00,170.0,4.5,170.0,4.82,12.41,47.59359,-54.27349
2023-08-20 00:54:01+00:00,166.0,4.08,164.0,4.66,12.41,47.59359,-54.27349
2023-08-20 01:04:01+00:00,163.0,4.47,165.0,5.26,12.41,47.59359,-54.27349
2023-08-20 01:14:01+00:00,166.0,4.45,168.0,4.8,12.41,47.59359,-54.27349
2023-08-20 01:24:01+00:00,170.0,3.93,172.0,4.32,12.41,47.59359,-54.27349
2023-08-20 01:34:01+00:00,174.0,4.2,170.0,5.01,12.41,47.59359,-54.27349
2023-08-20 01:44:01+00:00,180.0,4.2,180.0,4.97,12.41,47.59359,-54.27349
2023-08-20 01:54:01+00:00,169.0,4.84,170.0,5.41,12.41,47.59359,-54.27349
2023-08-20 02:04:01+00:00,177.0,4.96,178.0,5.67,12.41,47.59359,-54.27349
2023-08-20 02:14:00+00:00,175.0,4.87,176.0,5.47,12.41,47.59359,-54.27349
2023-08-20 02:24:00+00:00,173.0,5.2,178.0,5.88,12.41,47.59359,-54.27349
2023-08-20 02:34:00+00:00,174.0,4.78,173.0,5.43,12.41,47.59359,-54.27349
2023-08-20 02:44:00+00:00,176.0,4.08,174.0,5.23,12.41,47.59359,-54.27349
2023-08-20 02:54:00+00:00,163.0,5.02,172.0,5.74,12.41,47.59359,-54.27349
2023-08-20 03:04:00+00:00,165.0,5.25,157.0,6.11,12.41,47.59359,-54.27349
2023-08-20 03:14:01+00:00,166.0,6.06,169.0,7.22,12.33,47.59359,-54.27349
2023-08-20 03:24:01+00:00,170.0,4.97,173.0,6.06,12.33,47.59359,-54.27349
2023-08-20 03:34:01+00:00,176.0,6.49,178.0,7.9,12.33,47.59359,-54.27349
2023-08-20 03:44:01+00:00,169.0,4.93,169.0,5.28,12.33,47.59359,-54.27349
2023-08-20 03:54:01+00:00,178.0,4.5,178.0,4.85,12.33,47.59359,-54.27349
2023-08-20 04:04:01+00:00,188.0,3.44,188.0,3.81,12.33,47.59359,-54.27349
2023-08-20 04:14:00+00:00,186.0,1.93,191.0,2.12,12.33,47.59359,-54.27349
2023-08-20 04:24:00+00:00,192.0,1.71,188.0,2.05,12.33,47.59359,-54.27349
2023-08-20 04:34:00+00:00,295.0,0.23,302.0,0.34,12.33,47.59359,-54.27349
2023-08-20 04:44:00+00:00,221.0,0.48,226.0,0.83,12.33,47.59359,-54.27349
2023-08-20 04:54:00+00:00,169.0,2.07,170.0,2.41,12.33,47.59359,-54.27349
2023-08-20 05:04:00+00:00,165.0,3.47,167.0,3.81,12.33,47.59359,-54.27349
2023-08-20 05:14:00+00:00,165.0,2.58,165.0,2.87,12.33,47.59359,-54.27349
2023-08-20 05:24:00+00:00,173.0,1.31,176.0,1.5,12.33,47.59359,-54.27349
2023-08-20 05:34:00+00:00,236.0,0.5,226.0,0.89,12.33,47.59359,-54.27349
2023-08-20 05:44:00+00:00,176.0,0.73,180.0,1.12,12.33,47.59359,-54.27349
2023-08-20 05:54:00+00:00,161.0,2.86,163.0,3.13,12.33,47.59359,-54.27349
2023-08-20 06:04:00+00:00,175.0,3.09,181.0,3.68,12.33,47.59359,-54.27349
2023-08-20 06:14:00+00:00,182.0,2.37,185.0,2.53,12.33,47.59359,-54.27349
2023-08-20 06:24:00+00:00,272.0,0.69,287.0,1.05,12.33,47.59359,-54.27349
2023-08-20 06:34:00+00:00,173.0,2.87,178.0,3.57,12.33,47.59359,-54.27349
2023-08-20 06:44:00+00:00,155.0,3.14,161.0,3.57,12.33,47.59359,-54.27349
2023-08-20 06:54:00+00:00,156.0,2.88,152.0,3.21,12.33,47.59359,-54.27349
2023-08-20 07:04:00+00:00,172.0,2.05,168.0,2.36,12.33,47.59359,-54.27349
2023-08-20 07:14:00+00:00,325.0,0.64,317.0,0.96,12.33,47.59359,-54.27349
2023-08-20 07:24:00+00:00,211.0,1.99,206.0,2.62,12.33,47.59359,-54.27349
2023-08-20 07:34:00+00:00,222.0,3.53,230.0,3.96,12.33,47.59359,-54.27349
2023-08-20 07:44:00+00:00,213.0,3.74,224.0,4.65,12.33,47.59359,-54.27349
2023-08-20 07:54:00+00:00,208.0,3.21,209.0,3.57,12.33,47.59359,-54.27349
2023-08-20 08:04:00+00:00,200.0,2.55,201.0,2.75,12.33,47.59359,-54.27349
2023-08-20 08:14:00+00:00,189.0,2.33,191.0,2.67,12.25,47.59359,-54.27349
2023-08-20 08:24:00+00:00,138.0,1.58,149.0,2.28,12.25,47.59359,-54.27349
2023-08-20 08:34:00+00:00,175.0,1.64,175.0,2.92,12.25,47.59359,-54.27349
2023-08-20 08:44:00+00:00,269.0,1.22,278.0,1.52,12.25,47.59359,-54.27349
2023-08-20 08:54:00+00:00,215.0,2.25,231.0,2.73,12.25,47.59359,-54.27349
2023-08-20 09:04:00+00:00,210.0,1.64,201.0,2.52,12.25,47.59359,-54.27349
2023-08-20 09:14:00+00:00,192.0,1.38,194.0,1.88,12.25,47.59359,-54.27349
2023-08-20 09:24:00+00:00,166.0,1.19,171.0,1.46,12.25,47.59359,-54.27349
2023-08-20 09:34:00+00:00,113.0,0.68,126.0,1.01,12.25,47.59359,-54.27349
2023-08-20 09:44:00+00:00,178.0,1.01,180.0,1.13,12.25,47.59359,-54.27349
2023-08-20 09:54:00+00:00,212.0,0.93,211.0,1.05,12.25,47.59359,-54.27349
2023-08-20 10:04:00+00:00,276.0,0.91,281.0,1.06,12.25,47.59359,-54.27349
2023-08-20 10:14:00+00:00,287.0,1.69,289.0,1.86,12.25,47.59359,-54.27349
2023-08-20 10:24:00+00:00,321.0,0.88,299.0,1.35,12.25,47.59359,-54.27349
2023-08-20 10:34:00+00:00,278.0,0.91,277.0,1.21,12.25,47.59359,-54.27349
2023-08-20 10:44:00+00:00,239.0,0.4,241.0,0.78,12.25,47.59359,-54.27349
2023-08-20 10:54:00+00:00,284.0,0.49,286.0,0.76,12.25,47.59359,-54.27349
2023-08-20 11:04:00+00:00,243.0,1.4,242.0,1.69,12.25,47.59359,-54.27349
2023-08-20 11:14:01+00:00,240.0,2.84,253.0,5.66,12.49,47.59359,-54.27349
2023-08-20 11:24:01+00:00,229.0,3.57,236.0,4.5,12.49,47.59359,-54.27349
2023-08-20 11:34:01+00:00,203.0,3.13,211.0,3.67,12.49,47.59359,-54.27349
2023-08-20 11:44:01+00:00,193.0,2.73,196.0,3.15,12.49,47.59359,-54.27349
2023-08-20 11:54:01+00:00,195.0,1.46,196.0,1.85,12.49,47.59359,-54.27349
2023-08-20 12:04:01+00:00,201.0,1.44,193.0,1.97,12.49,47.59359,-54.27349
2023-08-20 12:14:00+00:00,201.0,2.13,197.0,2.59,12.81,47.59359,-54.27349
2023-08-20 12:24:00+00:00,197.0,2.59,210.0,3.05,12.81,47.59359,-54.27349
2023-08-20 12:34:00+00:00,209.0,2.05,206.0,2.33,12.81,47.59359,-54.27349
2023-08-20 12:44:00+00:00,212.0,1.73,212.0,2.26,12.81,47.59359,-54.27349
2023-08-20 12:54:00+00:00,226.0,1.44,224.0,1.83,12.81,47.59359,-54.27349
2023-08-20 13:04:00+00:00,218.0,1.08,215.0,1.55,12.81,47.59359,-54.27349
2023-08-20 13:14:01+00:00,216.0,2.26,218.0,2.59,13.13,47.59359,-54.27349
2023-08-20 13:24:01+00:00,198.0,1.57,198.0,1.87,13.13,47.59359,-54.27349
2023-08-20 13:34:01+00:00,201.0,1.38,203.0,1.64,13.13,47.59359,-54.27349
2023-08-20 13:44:01+00:00,204.0,2.21,206.0,2.52,13.13,47.59359,-54.27349
2023-08-20 13:54:01+00:00,226.0,2.47,226.0,2.66,13.13,47.59359,-54.27349
2023-08-20 14:04:01+00:00,225.0,1.56,227.0,1.71,13.13,47.59359,-54.27349
2023-08-20 14:14:01+00:00,198.0,1.86,199.0,2.01,13.53,47.59359,-54.27349
2023-08-20 14:24:01+00:00,181.0,1.58,186.0,1.83,13.53,47.59359,-54.27349
2023-08-20 14:34:01+00:00,171.0,2.08,169.0,2.25,13.53,47.59359,-54.27349
2023-08-20 14:44:01+00:00,176.0,1.77,178.0,1.98,13.53,47.59359,-54.27349
2023-08-20 14:54:01+00:00,182.0,0.47,184.0,0.6,13.53,47.59359,-54.27349
2023-08-20 15:04:01+00:00,206.0,0.59,206.0,0.78,13.53,47.59359,-54.27349
2023-08-20 15:14:00+00:00,310.0,0.6,304.0,0.73,13.68,47.59359,-54.27349
2023-08-20 15:24:00+00:00,284.0,1.3,305.0,1.46,13.68,47.59359,-54.27349
2023-08-20 15:34:00+00:00,255.0,1.74,253.0,1.97,13.68,47.59359,-54.27349
2023-08-20 15:44:00+00:00,249.0,1.51,249.0,1.88,13.68,47.59359,-54.27349
2023-08-20 15:54:00+00:00,236.0,1.42,236.0,1.66,13.68,47.59359,-54.27349
2023-08-20 16:04:00+00:00,190.0,1.28,192.0,1.52,13.68,47.59359,-54.27349
2023-08-20 16:14:00+00:00,222.0,3.49,223.0,3.96,13.68,47.59359,-54.27349
2023-08-20 16:24:00+00:00,247.0,2.55,244.0,2.82,13.68,47.59359,-54.27349
2023-08-20 16:34:00+00:00,224.0,0.85,226.0,1.09,13.68,47.59359,-54.27349
2023-08-20 16:44:00+00:00,291.0,0.56,296.0,0.63,13.68,47.59359,-54.27349
2023-08-20 16:54:00+00:00,304.0,0.71,293.0,0.9,13.68,47.59359,-54.27349
2023-08-20 17:04:00+00:00,317.0,1.16,320.0,1.46,13.68,47.59359,-54.27349
2023-08-20 17:14:00+00:00,29.0,0.76,29.0,1.07,13.68,47.59359,-54.27349
2023-08-20 17:24:00+00:00,118.0,0.14,132.0,0.31,13.68,47.59359,-54.27349
2023-08-20 17:34:00+00:00,111.0,0.65,113.0,0.79,13.68,47.59359,-54.27349
2023-08-20 17:44:00+00:00,90.0,0.3,89.0,0.64,13.68,47.59359,-54.27349
2023-08-20 17:54:00+00:00,332.0,0.19,347.0,0.37,13.68,47.59359,-54.27349
2023-08-20 18:04:00+00:00,259.0,0.61,255.0,0.72,13.68,47.59359,-54.27349
2023-08-20 18:14:00+00:00,246.0,0.69,248.0,0.81,13.6,47.59359,-54.27349
2023-08-20 18:24:00+00:00,239.0,1.4,241.0,1.55,13.6,47.59359,-54.27349
2023-08-20 18:34:00+00:00,200.0,1.85,203.0,2.0,13.6,47.59359,-54.27349
2023-08-20 18:44:00+00:00,198.0,1.23,204.0,1.35,13.6,47.59359,-54.27349
2023-08-20 18:54:00+00:00,189.0,1.16,191.0,1.32,13.6,47.59359,-54.27349
2023-08-20 19:04:00+00:00,130.0,0.97,130.0,1.09,13.6,47.59359,-54.27349
2023-08-20 19:14:00+00:00,123.0,1.04,117.0,1.3,13.37,47.59359,-54.27349
2023-08-20 19:24:00+00:00,177.0,0.62,173.0,0.75,13.37,47.59359,-54.27349
2023-08-20 19:34:00+00:00,240.0,0.77,242.0,0.98,13.37,47.59359,-54.27349
2023-08-20 19:44:00+00:00,257.0,1.32,259.0,1.64,13.37,47.59359,-54.27349
2023-08-20 19:54:00+00:00,244.0,2.46,250.0,4.41,13.37,47.59359,-54.27349
2023-08-20 20:04:00+00:00,228.0,6.21,229.0,7.5,13.37,47.59359,-54.27349
2023-08-20 20:14:00+00:00,223.0,7.18,230.0,8.33,13.05,47.59359,-54.27349
2023-08-20 20:24:00+00:00,227.0,6.1,232.0,7.42,13.05,47.59359,-54.27349
2023-08-20 20:34:00+00:00,234.0,5.55,237.0,6.67,13.05,47.59359,-54.27349
2023-08-20 20:44:00+00:00,217.0,8.65,217.0,9.47,13.05,47.59359,-54.27349
2023-08-20 20:54:00+00:00,213.0,6.2,218.0,7.25,13.05,47.59359,-54.27349
2023-08-20 21:04:00+00:00,211.0,7.78,209.0,8.46,13.05,47.59359,-54.27349
2023-08-20 21:14:00+00:00,204.0,9.21,204.0,10.37,12.81,47.59359,-54.27349
2023-08-20 21:24:00+00:00,206.0,8.86,201.0,10.14,12.81,47.59359,-54.27349
2023-08-20 21:34:00+00:00,216.0,9.94,218.0,11.28,12.81,47.59359,-54.27349
2023-08-20 21:44:00+00:00,221.0,6.9,215.0,8.49,12.81,47.59359,-54.27349
2023-08-20 21:54:00+00:00,217.0,7.59,216.0,8.46,12.81,47.59359,-54.27349
2023-08-20 22:04:00+00:00,221.0,6.42,214.0,8.3,12.81,47.59359,-54.27349
2023-08-20 22:14:00+00:00,225.0,7.81,228.0,8.58,12.49,47.59359,-54.27349
2023-08-20 22:24:00+00:00,220.0,7.84,217.0,8.88,12.49,47.59359,-54.27349
2023-08-20 22:34:00+00:00,220.0,9.18,231.0,11.67,12.49,47.59359,-54.27349
2023-08-20 22:44:00+00:00,214.0,7.34,216.0,8.37,12.49,47.59359,-54.27349
2023-08-20 22:54:00+00:00,216.0,9.04,218.0,10.73,12.49,47.59359,-54.27349
2023-08-20 23:04:00+00:00,208.0,8.34,204.0,9.58,12.49,47.59359,-54.27349
2023-08-20 23:14:01+00:00,213.0,8.44,214.0,9.34,12.41,47.59359,-54.27349
2023-08-20 23:24:01+00:00,212.0,7.96,212.0,8.9,12.41,47.59359,-54.27349
2023-08-20 23:34:01+00:00,218.0,8.61,212.0,9.81,12.41,47.59359,-54.27349
2023-08-20 23:44:01+00:00,211.0,9.04,212.0,10.24,12.41,47.59359,-54.27349
2023-08-20 23:54:01+00:00,215.0,10.3,213.0,11.61,12.41,47.59359,-54.27349
